Regional Weather Roundup
Issued by NWS Goodland, KS

Home | Current Version | Previous Version | Text Only | Print | Product List | Glossary On
Versions: 1 2 3 4 5 6 7 8 9 10 11 12 13 14 15 16 17 18 19 20 21 22 23 24 25 26 27 28 29 30 31 32 33 34 35 36 37 38 39 40 41 42 43 44 45 46 47 48 49 50
000
ASUS43 KGLD 291608
RWRGLD

GOODLAND FORECAST AREA HOURLY WEATHER ROUNDUP
NATIONAL WEATHER SERVICE GOODLAND KS
1000 AM MDT SUN MAR 29 2015

...OFFICIAL OBSERVATIONS...

CITY           SKY/WX    TMP DP  RH WIND       PRES   REMARKS
GOODLAND KS    SUNNY     55  26  32 NW25G36   30.24R
HILL CITY KS   SUNNY     63  26  24 N30       30.14R
IMPERIAL NEB     N/A     55  28  35 NW30G40   30.21R
MCCOOK NEB     SUNNY     60  29  30 NW28G35   30.17R
AKRON CO       SUNNY     50  25  37 N28G38    30.29R
BURLINGTON CO  SUNNY     55  22  27 N24G33    30.26R
LIMON CO       SUNNY     48  20  32 N22       30.32R
$$

...UNOFFICIAL OBSERVATIONS...

CITY           SKY/WX    TMP DP  RH WIND       PRES   REMARKS
COLBY KS       SUNNY     57  32  38 NW30G37   30.20R
GOVE KS          N/A     61  32  33 MISG        N/A
LENORA KS        N/A     59  32  36 MISG        N/A
NORTON KS      SUNNY     61  19  20 NW22G31   30.13R
SHARON SPRINGS   N/A     57  26  30 N30G41      N/A
TRIBUNE KS     SUNNY     61  32  33 N36G46    30.22
KIT CARSON CO    N/A     54  22  28 MISG        N/A
YUMA CO          N/A     52  22  31 N33         N/A
$$


USA.gov is the U.S. government's official web portal to all federal, state and local government web resources and services.